Location: Appleton
(44.2618°N, 88.4157°W)
Time: 19:31:18
(UTC+00:00)

Tiros 1 despin weight - Pass Details

Date: 06 March 2021
Orbit: 593 x 641 km, 48.2° (Epoch: 12 April)

Event Time Altitude Azimuth Distance (km) Brightness Sun altitude
Exits shadow 10:59:36 23° 236° (SW) 1,349 ? -15.5°
Maximum altitude 11:00:20 24° 221° (SW) 1,315 ? -15.4°
Drops below altitude 10° 11:04:05 10° 167° (SSE) 2,023 ? -14.7°
Sets 11:06:45 0° 154° (SSE) 2,928 ? -14.2°
